CW7220 Weather Reports


time (UTC)temp
C
wind
direction
speed
KPH
gust
KPH
rain 1hr
cm
rain 24hr
cm
rain mn
cm
humidity
%
barometer
mb
20260505040917 17 214 6.4 0.0 0.00 0.00 0.00 89 1011.1
20260505035928 17 229 4.8 0.0 0.00 0.00 0.00 89 1011.1
20260505034919 17 219 4.8 0.0 0.00 0.00 0.00 89 1011.1
20260505033931 17 225 4.8 0.0 0.00 0.00 0.00 89 1011.3
20260505031922 17 248 6.4 0.0 0.00 0.00 0.00 89 1011.3
20260505030932 17 223 6.4 0.0 0.00 0.00 0.00 89 1011.2
20260505025935 17 239 8.0 0.0 0.00 0.00 0.00 88 1011.2
20260505024930 17 232 9.7 0.0 0.00 0.00 0.00 88 1011.2
20260505023922 17 233 9.7 0.0 0.00 0.00 0.00 88 1011.2
20260505021928 17 229 9.7 0.0 0.00 0.00 0.00 88 1011.3
20260505020925 17 203 12.9 0.0 0.00 0.00 0.00 88 1011.4
20260505015936 17 228 12.9 0.0 0.00 0.00 0.00 87 1011.5
20260505014929 17 205 12.9 0.0 0.00 0.00 0.00 87 1011.6
20260505013925 17 225 14.5 0.0 0.00 0.00 0.00 86 1011.7
20260505012918 17 219 12.9 0.0 0.00 0.00 0.00 86 1011.8
20260505011930 17 223 14.5 0.0 0.00 0.00 0.00 86 1011.9
20260505010922 17 217 14.5 0.0 0.00 0.00 0.00 87 1012.1
20260505003924 17 202 11.3 0.0 0.00 0.00 0.00 88 1012.5
20260505002918 17 221 9.7 0.0 0.00 0.00 0.00 88 1012.7
20260505001935 17 211 11.3 0.0 0.00 0.00 0.00 88 1012.6
20260505000928 17 214 9.7 0.0 0.00 0.00 0.00 88 1012.7
20260504235919 17 222 11.3 0.0 0.00 0.00 0.00 88 1012.8
20260504234932 17 224 11.3 0.0 0.00 0.00 0.00 88 1012.9
20260504233928 17 215 11.3 0.0 0.00 0.00 0.00 88 1012.9
20260504232920 17 205 11.3 0.0 0.00 0.00 0.00 88 1013.0
20260504231931 17 203 9.7 0.0 0.00 0.00 0.00 89 1013.0
20260504225919 18 206 9.7 0.0 0.00 0.00 0.00 89 1013.0
20260504224931 18 191 9.7 0.0 0.00 0.00 0.00 89 1012.9
20260504222918 17 192 4.8 0.0 0.00 0.00 0.00 89 1013.0
20260504221931 17 223 9.7 0.0 0.00 0.00 0.00 89 1012.6
20260504220922 17 196 11.3 0.0 0.00 0.00 0.00 89 1012.4
20260504215934 18 200 11.3 0.0 0.00 0.00 0.00 89 1012.4
20260504214931 18 219 11.3 0.0 0.00 0.00 0.00 89 1012.3
20260504213923 18 218 9.7 0.0 0.00 0.00 0.00 88 1012.4
20260504212916 18 214 9.7 0.0 0.00 0.00 0.00 88 1012.5
20260504211933 18 207 9.7 0.0 0.00 0.00 0.00 88 1012.5
20260504210927 18 227 9.7 0.0 0.00 0.00 0.00 88 1012.4
20260504205919 18 198 8.0 0.0 0.00 0.00 0.00 87 1012.3
20260504204932 18 215 8.0 0.0 0.00 0.00 0.00 87 1012.4
20260504202921 18 234 8.0 0.0 0.00 0.00 0.00 86 1012.3
20260504201932 18 230 9.7 0.0 0.00 0.00 0.00 86 1012.2
20260504200925 18 221 8.0 0.0 0.00 0.00 0.00 86 1012.2
20260504194934 18 195 9.7 0.0 0.00 0.00 0.00 86 1011.9
20260504193926 18 217 8.0 0.0 0.00 0.00 0.00 86 1011.9
20260504192922 18 218 9.7 0.0 0.00 0.00 0.00 86 1011.8
20260504191933 18 217 9.7 0.0 0.00 0.00 0.00 86 1011.7
20260504190926 18 211 9.7 0.0 0.00 0.00 0.00 86 1011.6
20260504185919 18 215 11.3 0.0 0.00 0.00 0.00 86 1011.5
20260504184936 18 232 9.7 0.0 0.00 0.00 0.00 86 1011.4
20260504183929 18 212 11.3 0.0 0.00 0.00 0.00 85 1011.3
20260504182921 18 184 12.9 0.0 0.00 0.00 0.00 86 1011.3
20260504181917 18 227 14.5 0.0 0.00 0.00 0.00 86 1011.2
20260504180928 18 204 16.1 0.0 0.00 0.00 0.00 85 1011.2
20260504175918 19 222 14.5 0.0 0.00 0.00 0.00 85 1011.2
20260504174931 19 213 17.7 0.0 0.00 0.00 0.00 85 1011.2
20260504172922 19 219 16.1 0.0 0.00 0.00 0.00 85 1011.3
20260504171933 20 232 16.1 0.0 0.00 0.00 0.00 84 1011.3
20260504170925 20 223 19.3 0.0 0.00 0.00 0.00 84 1011.3
20260504081918 18 154 6.4 0.0 0.00 0.00 0.00 91 1013.2
20260504080932 18 177 4.8 0.0 0.00 0.00 0.00 91 1013.2
20260504045922 17 261 0.0 0.0 0.00 0.00 0.00 90 1012.5